Regional Weather Roundup
Issued by NWS

Home | Current Version | Previous Version | Graphics & Text | Print | Product List | Glossary Off
Versions: 1 2 3 4 5 6 7 8 9 10 11 12 13 14 15 16 17 18 19 20 21 22 23 24 25 26 27 28 29 30 31 32 33 34 35 36 37 38 39 40 41 42 43 44 45 46 47 48 49

000
ASUS43 KDMX 191307
RWRIA

WEATHER ROUNDUP FOR IOWA
NATIONAL WEATHER SERVICE DES MOINES IA
800 AM CDT FRI SEP 19 2014

NOTE: "FAIR" INDICATES FEW OR NO CLOUDS BELOW 12,000 FEET WITH NO
SIGNIFICANT WEATHER AND/OR OBSTRUCTIONS TO VISIBILITY.

* - THESE STATIONS ARE NOT NWS STATIONS...THUS NOT UNDER NWS
QUALITY CONTROL.  THEY ALSO DO NOT REPORT WEATHER SUCH
AS PRECIPITATION OR FOG.

IAZ001>003-012>014-020>022-031>034-043>046-191400-
   NORTHWEST IOWA

CITY           SKY/WX    TMP DP  RH WIND       PRES   REMARKS
CARROLL *      MOCLDY    61  59  94 S13       29.94F FOG
CHEROKEE *     CLOUDY    63  63 100 S12G17    29.89F FOG
DENISON *      CLOUDY    63  61  94 S12G20    29.91F FOG
LE MARS *      CLOUDY    63  61  94 S17       29.86F FOG
ORANGE CITY *  CLOUDY    63  61  94 S15       29.86F FOG
SHELDON *      CLOUDY    61  61 100 S12       29.86F FOG
SIOUX CITY     CLOUDY    64  61  90 S10G18    29.87S
SPENCER        CLOUDY    61  58  90 S8        29.90F
STORM LAKE *   CLOUDY    61  61 100 S14G20    29.91F FOG
$$

IAZ055>058-069>071-079>083-090>094-191400-
   SOUTHWEST IOWA

CITY           SKY/WX    TMP DP  RH WIND       PRES   REMARKS
ATLANTIC *     FOG       61  59  94 S9        29.97S VSB 3/4
AUDUBON *      CLOUDY    61  55  82 S13G20    29.97F HAZE
CLARINDA *     CLOUDY    61  61 100 S9        30.01S FOG
COUNCIL BLFS * CLOUDY    61  61 100 S13       29.94S FOG
CRESTON *      CLOUDY    59  59 100 S13G20    30.01S FOG
HARLAN  *      CLOUDY    61  61 100 S15       29.98F FOG
LAMONI         CLOUDY    57  56  96 SE7       30.04R FOG
SHENANDOAH *   CLOUDY    63  63 100 S12       29.99S FOG
$$

IAZ047>049-059>061-072>074-084-191400-
   CENTRAL IOWA

CITY           SKY/WX    TMP DP  RH WIND       PRES   REMARKS
AMES           SUNNY     54  53  97 SE8       30.01F FOG
ANKENY *       SUNNY     57  55  94 S8        30.02S
CHARITON *     SUNNY     55  54  94 S9        30.04S
DES MOINES     MOSUNNY   58  54  86 S9        30.02S
GRINNELL*      SUNNY     55  50  82 SE8       30.06R
KNOXVILLE *    SUNNY     55  52  88 SE7       30.03F
MARSHALLTOWN   SUNNY     53  50  89 SE8       30.03S
PELLA *        SUNNY     55  54  94 SE7       30.06S
PERRY *          N/A     57  57 100 S10G16    29.99S FOG
$$

IAZ004>006-015-016-023>025-035-036-191400-
   NORTH CENTRAL IOWA

CITY           SKY/WX    TMP DP  RH WIND       PRES   REMARKS
ALGONA *       MOCLDY    57  55  94 S13G21    29.92F FOG
CLARION *        N/A     59  55  88 S17G26    29.96F
ESTHERVILLE    CLOUDY    58  56  93 S13       29.91S FOG
FORT DODGE *   CLOUDY    59  55  88 S12       29.96F
MASON CITY     SUNNY     53  51  93 SE14      29.99F
FOREST CITY *  SUNNY     55  54  94 SE15      29.96F
IOWA FALLS *     N/A     54  50  87 SE9       30.01F
$$

IAZ007>011-017>019-026>030-037>042-050>054-066-191400-
   NORTHEAST IOWA

CITY           SKY/WX    TMP DP  RH WIND       PRES   REMARKS
CEDAR RAPIDS   SUNNY     53  51  93 S8        30.08R
CHARLES CITY * SUNNY     54  50  87 SE9       30.03F
CLINTON *      SUNNY     52  50  93 SE6       30.14S
DECORAH *      SUNNY     52  50  93 SE8       30.04F FOG
DUBUQUE        FOG       51  51 100 S6        30.10S VSB 1
MONTICELLO *   SUNNY     52  52 100 SE5       30.09R FOG
OELWEIN *      SUNNY     52  50  93 S9        30.07S FOG
WATERLOO       MOSUNNY   54  49  83 S12       30.04S
$$

IAZ064-065-067-068-078-191400-
   EAST CENTRAL IOWA

CITY           SKY/WX    TMP DP  RH WIND       PRES   REMARKS
DAVENPORT      SUNNY     53  50  89 SE7       30.11S FOG
IOWA CITY      SUNNY     51  50  96 SE5       30.09S
MT. PLEASANT * SUNNY     54  50  87 SE5       30.09F
MUSCATINE *    SUNNY     50  48  93 CALM      30.10S FOG
QUAD CITIES    SUNNY     52  49  89 E5        30.11S FOG
$$

IAZ062-063-075>077-085>089-095>099-191400-
   SOUTHEAST IOWA

CITY           SKY/WX    TMP DP  RH WIND       PRES   REMARKS
BURLINGTON     SUNNY     55  51  86 CALM      30.10R
FAIRFIELD *    SUNNY     54  50  87 SE5       30.08R
FORT MADISON * SUNNY     57  54  88 SE5       30.10S
KEOKUK *       SUNNY     54  52  94 SE5       30.09S
OSKALOOSA *      N/A     52  50  93 SE7       30.07R
CENTERVILLE *  SUNNY     55  55 100 SE5       30.08R
OTTUMWA        SUNNY     55  52  89 S6        30.05S
WASHINGTON *   SUNNY     52  52 100 SE6       30.08S
$$

ABBREVIATIONS USED IN REMARKS
   TC - TEMPERATURES IN CELSIUS
  WCI - WIND CHILL INDEX
   HX - HEAT INDEX
  VSB - VISIBILITY
$$




USA.gov is the U.S. government's official web portal to all federal, state and local government web resources and services.